[[{"header":{"parameterUnit":"m.s-1","parameterCategory":1,"la1":30.2991,"la2":30.254,"lo1":-89.0895,"lo2":-89.0444,"dy":0.0017,"dx":0.0017,"nx":28,"ny":28,"refTime":"2023-10-07T09:00:00:Z","depth":0,"parameterNumber":2,"parameterNumberName":"U-component_of_WINDS"},"data":[0,0,0,0,0,0,0,0,0,0,0,0,0,0,0,0,0,0,0,0,0,0,0,0,0,0,0,0,0,0,0,0,0,0,0,0,0,0,0,0,0,0,0,0,0,0,0,0,0,0,0,0,0,0,0,0,0,0,0.9421,0.9419,0,0.9286,0.9284,0.9283,0.9179,0.9178,0.9177,0.9176,0.9034,0.9032,0.9029,0,0,0,0,0,0,0,0,0,0,0,0,0,0.9587,0.9584,0.9421,0.9419,0.9418,0.9286,0.9284,0.9282,0.9179,0.9178,0.9177,0.9176,0.9035,0.9032,0.9029,0,0,0,0,0,0,0,0,0,0,0,0,0,0.9489,0.9583,0.9421,0.935,0.9343,0.9286,0.9284,0.9282,0.9179,0.9178,0.9177,0.9175,0.9037,0.9032,0.9028,0.903,0,0,0.9015,0.9013,0,0,0,0,0,0,0,0,0.9495,0.9483,0.9362,0.9355,0.9346,0.9248,0.929,0.9197,0.918,0.9241,0.9176,0.9174,0.9106,0.9096,0.9074,0.9024,0.9018,0.9015,0.9012,0.901,0.9009,0,0,0,0,0,0,0,0.9502,0.9489,0.9367,0.9361,0.9351,0.9324,0.9309,0.9272,0.9183,0.9236,0.9228,0.9214,0.9102,0.9078,0.907,0.9015,0.9015,0.9011,0.9008,0.9006,0.896,0.8961,0,0,0,0,0,0,0.952,0.9495,0.9372,0.9363,0.9419,0.9323,0.9305,0.9281,0.9184,0.9167,0.9215,0.9209,0.9086,0.9075,0.9064,0.906,0.901,0.9006,0.9004,0.8959,0.896,0.8962,0,0,0,0,0,0,0.9524,0.951,0.9377,0.9427,0.9408,0.9321,0.9295,0.9279,0.9255,0.9168,0.9151,0.9208,0.9085,0.9071,0.904,0.9054,0.9004,0.9,0.8957,0.8959,0.8961,0.9053,0,0,0,0,0,0,0.9529,0.9512,0.9513,0.9428,0.9406,0.9356,0.9296,0.9277,0.9249,0.924,0.9157,0.9141,0.9083,0.9047,0.9036,0.9047,0.8997,0.8955,0.8958,0.896,0.9048,0.9058,0.9066,0,0,0,0,0,0.9536,0.9543,0.9513,0.9499,0.9405,0.9357,0.9344,0.9277,0.925,0.925,0.9194,0.9144,0.9055,0.9045,0.9031,0.9042,0.8954,0.8957,0.896,0.9044,0.9056,0.9066,0,0,0,0,0,0,0.9631,0.9531,0.9496,0.9477,0.9427,0.9339,0.9336,0.9292,0.9247,0.924,0.9158,0.914,0.9118,0.9077,0.9067,0.9038,0.8998,0.8998,0.9066,0.9077,0.9086,0.9096,0.8993,0,0,0,0,0,0.965,0.962,0.9534,0.9525,0.9502,0.9424,0.94,0.9354,0.9297,0.9275,0.9216,0.9163,0.9122,0.9097,0.9055,0.9042,0.9022,0.9042,0.9051,0.9059,0.906,0.905,0.9058,0.8972,0.8972,0.8972,0,0,0.9688,0.963,0.9616,0.9543,0.9498,0.9468,0.9406,0.9377,0.9354,0.927,0.9237,0.9193,0.9127,0.9106,0.9093,0.907,0.908,0.9063,0.907,0.9066,0.9054,0.9062,0.9069,0.8974,0.8973,0.8973,0,0,0.9742,0.9696,0.9683,0.964,0.9574,0.9522,0.952,0.9439,0.9407,0.9374,0.931,0.9281,0.9213,0.9169,0.9138,0.9177,0.913,0.9166,0.9212,0.9203,0.921,0.9215,0.9229,0.9234,0.9167,0.9168,0.9168,0,0.9798,0.9752,0.9682,0.9657,0.9627,0.9551,0.9537,0.9498,0.9421,0.9402,0.9378,0.9292,0.9242,0.9209,0.9219,0.9196,0.919,0.9174,0.9214,0.9219,0.9223,0.9235,0.9241,0.9172,0.9172,0.9171,0.9171,0,0.9823,0.9792,0.979,0.9719,0.9688,0.9669,0.9596,0.9573,0.9529,0.948,0.9447,0.9385,0.933,0.9318,0.9275,0.9279,0.9267,0.923,0.9187,0.9238,0.9247,0.9251,0.9179,0.9178,0.9176,0.9175,0,0,0.9932,0.9825,0.9825,0.9792,0.9713,0.9687,0.9665,0.9612,0.9593,0.9543,0.9521,0.9467,0.9432,0.9397,0.9348,0.934,0.9375,0.9303,0.9301,0.9318,0.9375,0.9402,0.9409,0.9343,0.9344,0.9344,0.938,0,0.9974,0.993,0.9868,0.9844,0.9814,0.9742,0.9722,0.9672,0.9626,0.9593,0.9541,0.9503,0.9461,0.944,0.9429,0.9373,0.9385,0.937,0.9321,0.932,0.9339,0.9414,0.9443,0.9479,0.9383,0.9384,0.9384,0,1.0016,0.9971,0.9946,0.987,0.9855,0.9839,0.9785,0.9755,0.9696,0.9663,0.9625,0.9572,0.9543,0.9506,0.9465,0.9457,0.9433,0.9403,0.9403,0.9395,0.9355,0.9407,0.9489,0.9495,0.939,0.9389,0.9389,0,1.0098,1.0031,1.0007,0.9981,0.9892,0.9882,0.9845,0.9785,0.9757,0.971,0.9691,0.9641,0.9613,0.9576,0.951,0.949,0.9477,0.9434,0.9447,0.9449,0.9447,0.9448,0.9526,0.9434,0.9434,0.9434,0.9433,0,1.015,1.0137,1.0042,1.0027,1.001,0.9939,0.9923,0.9879,0.9826,0.9801,0.9736,0.9713,0.9629,0.9596,0.9545,0.9519,0.9507,0.9478,0.9465,0.9484,0.9487,0.9466,0.9462,0.9435,0.9435,0.9434,0.9434,0,1.0237,1.0174,1.0143,1.0062,1.0042,1.0033,0.9963,0.9946,0.9896,0.9865,0.9853,0.9776,0.9734,0.9666,0.9603,0.9569,0.9552,0.9529,0.9572,0.9563,0.958,0.958,0.9647,0.9652,0.9559,0.956,0.956,0,1.0275,1.0263,1.0182,1.0161,1.0126,1.0093,1.0065,0.9994,0.9967,0.99,0.989,0.9844,0.9802,0.9739,0.9676,0.9628,0.9603,0.963,0.9595,0.9615,0.9603,0.9604,0.9602,0.9638,0.9639,0.964,0.9641,0,1.0347,1.0316,1.0279,1.0231,1.0199,1.0158,1.0112,1.0099,1.0017,0.9991,0.9948,0.9916,0.9853,0.9808,0.9751,0.9711,0.9663,0.9653,0.9653,0.9672,0.9697,0.9683,0.9593,0.9651,0.965,0.965,0.9649,0.9649,1.0409,1.0396,1.0337,1.0297,1.0257,1.0216,1.0196,1.0145,1.0108,1.0053,1.0013,0.9973,0.9914,0.9833,0.9796,0.9763,0.9741,0.9742,0.9742,0.9743,0.975,0.9704,0.9753,0.9752,0.9752,0.9751,0.9751,0,1.0477,1.0436,1.0401,1.0341,1.031,1.0269,1.0217,1.0193,1.0159,1.011,1.0071,1.0022,0.9978,0.9912,0.9862,0.9848,0.9825,0.9838,0.9837,0.9829,0.9773,0.9777,0.9858,0.9858,0.9858,0.9858,0.9858,0.9858,1.0509,1.0484,1.0447,1.0401,1.0359,1.0321,1.0294,1.0257,1.0217,1.0165,1.0129,1.0087,1.003,0.9976,0.9934,0.9915,0.9899,0.9919,0.9894,0.9843,0.9833,0.9823,0.9827,0.9917,0.9917,0.9953,0.9953,0.9953]},{"header":{"parameterUnit":"m.s-1","parameterCategory":1,"la1":30.2991,"la2":30.254,"lo1":-89.0895,"lo2":-89.0444,"dy":0.0017,"dx":0.0017,"nx":28,"ny":28,"refTime":"2023-10-07T09:00:00:Z","depth":0,"parameterNumber":3,"parameterNumberName":"V-component_of_WINDS"},"data":[0,0,0,0,0,0,0,0,0,0,0,0,0,0,0,0,0,0,0,0,0,0,0,0,0,0,0,0,0,0,0,0,0,0,0,0,0,0,0,0,0,0,0,0,0,0,0,0,0,0,0,0,0,0,0,0,0,0,-1.2717,-1.2718,0,-1.2757,-1.2758,-1.2758,-1.275,-1.2749,-1.2748,-1.2747,-1.2789,-1.2791,-1.2793,0,0,0,0,0,0,0,0,0,0,0,0,0,-1.2633,-1.2634,-1.2717,-1.2718,-1.2718,-1.2757,-1.2758,-1.2758,-1.275,-1.2749,-1.2748,-1.2747,-1.2789,-1.2791,-1.2793,0,0,0,0,0,0,0,0,0,0,0,0,0,-1.2671,-1.2635,-1.2717,-1.2719,-1.2719,-1.2757,-1.2758,-1.2759,-1.275,-1.2749,-1.2748,-1.2747,-1.2788,-1.279,-1.2793,-1.2832,0,0,-1.2801,-1.2803,0,0,0,0,0,0,0,0,-1.2669,-1.2674,-1.2718,-1.2718,-1.2719,-1.2747,-1.2743,-1.2783,-1.275,-1.2738,-1.2747,-1.2746,-1.2776,-1.278,-1.279,-1.2834,-1.2836,-1.2802,-1.2803,-1.2804,-1.2805,0,0,0,0,0,0,0,-1.2666,-1.2672,-1.2733,-1.2718,-1.2719,-1.2717,-1.2721,-1.2751,-1.2763,-1.2739,-1.2739,-1.2744,-1.2776,-1.2787,-1.2791,-1.2837,-1.2802,-1.2804,-1.2806,-1.2807,-1.2915,-1.2916,0,0,0,0,0,0,-1.2663,-1.267,-1.2732,-1.2734,-1.2691,-1.272,-1.2724,-1.2739,-1.2763,-1.2765,-1.2744,-1.2743,-1.2783,-1.2788,-1.2792,-1.2839,-1.2804,-1.2807,-1.2809,-1.2914,-1.2915,-1.2917,0,0,0,0,0,0,-1.2661,-1.2668,-1.273,-1.2702,-1.271,-1.2722,-1.2739,-1.2741,-1.2752,-1.2767,-1.2769,-1.2753,-1.2782,-1.2788,-1.2822,-1.284,-1.2808,-1.2811,-1.2912,-1.2914,-1.2916,-1.2934,0,0,0,0,0,0,-1.2659,-1.2668,-1.2683,-1.2702,-1.2711,-1.276,-1.274,-1.2742,-1.2756,-1.2755,-1.2776,-1.2778,-1.2782,-1.2818,-1.2825,-1.2844,-1.2813,-1.2911,-1.2913,-1.2915,-1.2932,-1.2936,-1.294,0,0,0,0,0,-1.2656,-1.2686,-1.2684,-1.2691,-1.273,-1.2761,-1.2766,-1.277,-1.2758,-1.2773,-1.2783,-1.2777,-1.2838,-1.2822,-1.2829,-1.2849,-1.291,-1.2913,-1.2915,-1.293,-1.2935,-1.294,0,0,0,0,0,0,-1.2669,-1.2689,-1.2686,-1.2724,-1.2741,-1.2759,-1.2778,-1.2775,-1.2796,-1.2793,-1.2798,-1.2802,-1.2837,-1.2846,-1.2829,-1.2888,-1.2872,-1.2876,-1.288,-1.2886,-1.289,-1.2886,-1.2815,0,0,0,0,0,-1.2676,-1.2699,-1.2715,-1.2747,-1.2756,-1.2766,-1.2779,-1.2781,-1.2798,-1.2805,-1.2817,-1.2834,-1.2857,-1.2872,-1.2894,-1.2933,-1.2937,-1.295,-1.2955,-1.2958,-1.2961,-1.2983,-1.2988,-1.2926,-1.2926,-1.2926,0,0,-1.2691,-1.2705,-1.2719,-1.275,-1.2763,-1.2787,-1.2771,-1.2797,-1.2815,-1.2809,-1.2841,-1.2851,-1.2871,-1.2907,-1.2924,-1.2916,-1.298,-1.2961,-1.2964,-1.2966,-1.2986,-1.2992,-1.2997,-1.2928,-1.2928,-1.2927,0,0,-1.273,-1.2743,-1.2771,-1.2784,-1.2804,-1.2811,-1.2818,-1.2837,-1.2843,-1.2876,-1.2872,-1.2893,-1.2932,-1.2946,-1.2958,-1.3003,-1.2999,-1.301,-1.3031,-1.3052,-1.3057,-1.3061,-1.3077,-1.3082,-1.3014,-1.3014,-1.3014,0,-1.2746,-1.2782,-1.2786,-1.2812,-1.2825,-1.2821,-1.2849,-1.2862,-1.2888,-1.2898,-1.2889,-1.2938,-1.2951,-1.2991,-1.3002,-1.3012,-1.3019,-1.3008,-1.3056,-1.306,-1.3064,-1.3079,-1.3085,-1.3015,-1.3015,-1.3015,-1.3015,0,-1.28,-1.2825,-1.2845,-1.287,-1.2886,-1.2913,-1.2921,-1.2937,-1.2937,-1.2945,-1.2978,-1.2994,-1.3018,-1.3028,-1.3029,-1.3068,-1.3062,-1.3055,-1.3038,-1.3072,-1.3086,-1.3091,-1.3017,-1.3017,-1.3016,-1.3016,0,0,-1.2848,-1.2875,-1.2883,-1.2894,-1.2916,-1.2935,-1.2962,-1.2986,-1.2999,-1.3017,-1.304,-1.3073,-1.3066,-1.308,-1.3083,-1.3101,-1.3135,-1.3091,-1.3091,-1.3098,-1.3178,-1.3184,-1.319,-1.3132,-1.3134,-1.3134,-1.3177,0,-1.2889,-1.2936,-1.294,-1.2982,-1.3005,-1.3002,-1.3025,-1.3041,-1.3049,-1.3069,-1.3078,-1.3101,-1.3091,-1.3099,-1.3117,-1.3127,-1.3151,-1.3124,-1.3153,-1.3154,-1.3147,-1.3197,-1.3203,-1.3242,-1.3182,-1.3183,-1.3184,0,-1.2943,-1.2962,-1.3007,-1.3025,-1.3035,-1.3056,-1.3078,-1.3098,-1.3116,-1.312,-1.3136,-1.3136,-1.3164,-1.3147,-1.3185,-1.3167,-1.3179,-1.3186,-1.3187,-1.319,-1.317,-1.3201,-1.3255,-1.326,-1.3193,-1.3192,-1.3191,0,-1.2972,-1.301,-1.3041,-1.3051,-1.3074,-1.3089,-1.3099,-1.3116,-1.313,-1.315,-1.3159,-1.3182,-1.3194,-1.3212,-1.3218,-1.3206,-1.3256,-1.324,-1.326,-1.326,-1.327,-1.3269,-1.3326,-1.3279,-1.3279,-1.3279,-1.3279,0,-1.3017,-1.3044,-1.3055,-1.3074,-1.3104,-1.3109,-1.3139,-1.3149,-1.3164,-1.3185,-1.3184,-1.3204,-1.3211,-1.3232,-1.3237,-1.3268,-1.3274,-1.3278,-1.3279,-1.3277,-1.3277,-1.3285,-1.3282,-1.3281,-1.328,-1.328,-1.328,0,-1.3055,-1.3063,-1.3097,-1.3116,-1.3121,-1.3143,-1.3159,-1.3177,-1.3185,-1.3212,-1.3218,-1.323,-1.3255,-1.3263,-1.3293,-1.3297,-1.3332,-1.3331,-1.3326,-1.3326,-1.3345,-1.3343,-1.3409,-1.3418,-1.3366,-1.3366,-1.3366,0,-1.3082,-1.3103,-1.3124,-1.3138,-1.3149,-1.3171,-1.3186,-1.3192,-1.3207,-1.3229,-1.3245,-1.3269,-1.3289,-1.3329,-1.334,-1.3363,-1.3362,-1.3384,-1.3366,-1.3364,-1.3362,-1.336,-1.3362,-1.3387,-1.3388,-1.3388,-1.3388,0,-1.313,-1.3133,-1.3154,-1.3176,-1.3194,-1.3212,-1.3229,-1.3241,-1.3249,-1.3266,-1.3291,-1.3307,-1.3337,-1.3361,-1.3385,-1.3396,-1.3393,-1.3394,-1.34,-1.3399,-1.3394,-1.3396,-1.3334,-1.3392,-1.3392,-1.3392,-1.3391,-1.3391,-1.3163,-1.3181,-1.3199,-1.3222,-1.3236,-1.3252,-1.327,-1.328,-1.3301,-1.3327,-1.3329,-1.3356,-1.3374,-1.3405,-1.3417,-1.3438,-1.3432,-1.3441,-1.3443,-1.3445,-1.3446,-1.3392,-1.3443,-1.3443,-1.3442,-1.3442,-1.3442,0,-1.321,-1.3221,-1.3243,-1.3267,-1.3285,-1.3282,-1.3301,-1.3317,-1.334,-1.3357,-1.3377,-1.3406,-1.3429,-1.3443,-1.3466,-1.3481,-1.348,-1.3487,-1.3485,-1.3488,-1.345,-1.3443,-1.3487,-1.3487,-1.3487,-1.3487,-1.3487,-1.3487,-1.3237,-1.3267,-1.3272,-1.331,-1.3321,-1.3347,-1.3358,-1.3373,-1.3387,-1.3419,-1.3439,-1.3447,-1.3463,-1.3488,-1.3509,-1.3513,-1.3521,-1.3528,-1.3531,-1.3495,-1.3491,-1.3486,-1.3479,-1.353,-1.353,-1.3566,-1.3567,-1.3567]}]]